Location: Nianha
(10.8000°N, 4.6333°W)
Time: 05:01:30
(UTC+00:00)

Daily predictions for brighter satellites

Satellite Brightness Start Highest point End
(mag) Time Altitude Azimuth Time Altitude Azimuth Time Altitude Azimuth
Cosmos 2333 Rocket 3.9 03:35:31 29° ENE 03:35:31 29° ENE 03:38:36 10° NE
Cosmos 1898 Rocket 4.0 04:08:50 30° N 04:11:18 57° ENE 04:16:31 10° SSE
Meteor 2-20 4.3 04:11:40 50° S 04:13:26 88° E 04:19:33 10° N
ARIANE 5 R/B 3.8 04:19:37 36° SSE 04:19:37 36° SSE 04:22:28 10° ESE
H-2A R/B 2.8 04:16:47 10° SSE 04:20:58 51° ENE 04:25:14 10° N
Cosmos 2263 Rocket 2.6 04:25:57 47° SSW 04:25:57 47° SSW 04:30:09 10° S
Hubble Space Telescope 3.3 04:29:47 12° N 04:29:47 12° N 04:30:37 10° NNE
Cosmos 1937 Rocket 3.9 04:24:02 10° N 04:29:04 59° ENE 04:34:08 10° SSE
Cosmos 2173 Rocket 4.3 04:24:26 10° N 04:30:46 67° E 04:37:04 10° SSE
Atlas Centaur 2 1.6 04:33:04 57° SE 04:33:04 57° SE 04:37:21 10° ENE
Cosmos 1484 Rocket 3.3 04:29:17 10° NNE 04:33:13 58° E 04:37:06 10° S
Cosmos 2219 Rocket 2.6 04:41:49 40° WNW 04:41:49 40° WNW 04:46:33 10° N
GPS 2-15 Rocket1 3.1 04:41:21 56° NW 04:42:17 77° NNE 04:46:59 10° ESE
GPS 2-12 Rocket1 2.9 04:42:58 62° WNW 04:43:33 71° NNW 04:48:00 10° ENE
CZ-3A R/B 2.7 04:44:39 16° SSE 04:44:58 16° SE 04:47:19 10° E
ERS-2 3.0 04:42:20 10° SSE 04:45:52 49° ENE 04:49:24 10° N
Meteor 1-31 Rocket 2.9 04:42:32 10° NNE 04:46:23 71° E 04:50:17 10° S
USA 32 4.3 04:42:33 10° NNW 04:47:29 43° W 04:52:25 10° SSW
Meteor 1-11 Rocket 3.9 04:44:06 10° NNW 04:49:20 43° W 04:54:32 10° SSW
OAO 2 Rocket 3.3 04:48:38 38° WSW 04:50:43 85° NW 04:56:03 10° NE
CZ-3 R/B 3.8 04:21:41 10° SW 04:51:03 51° SSE 04:58:38 10° E
ARIANE 44LP R/B 3.8 04:53:26 15° S 04:53:40 16° S 04:55:54 10° SE
Meteor 2-4 Rocket 4.2 04:48:11 10° S 04:53:41 61° E 04:59:02 10° NNE
Intercosmos 25 4.3 04:49:58 10° SSW 04:55:33 37° W 04:59:19 10° NNW
Cosmos 2237 Rocket 2.3 04:56:51 10° S 05:02:31 78° ESE 05:08:09 10° NNE
Cosmos 2016 Rocket 4.0 04:56:35 10° N 05:02:40 83° E 05:08:49 10° S
Cosmos 1242 Rocket 4.0 04:59:23 10° SSE 05:02:49 40° E 05:06:16 10° NNE
ALOS 2.3 04:58:22 10° N 05:02:55 54° WNW 05:07:26 10° SSW
Cosmos 1980 3.6 04:59:43 10° SSW 05:05:21 89° WNW 05:11:01 10° NNE
SJ-12 4.0 05:02:57 10° NNE 05:07:05 79° ESE 05:11:12 10° S
Cosmos 1544 3.9 05:03:55 10° N 05:07:23 52° E 05:10:53 10° SSE
COSMOS 2428 3.7 05:07:22 24° W 05:08:33 25° WNW 05:13:10 10° NNW
Okean 1-7 3.1 05:04:37 10° SSW 05:08:44 48° W 05:12:50 10° N
ATLAS 2AS CENTAUR R/B 3.8 05:03:33 10° N 05:10:02 44° ENE 05:16:03 10° SE
Cosmos 783 Rocket 4.4 05:05:30 10° SSW 05:10:42 87° WNW 05:15:57 10° NNE
Cosmos 1703 Rocket 4.0 05:08:44 10° SSW 05:12:43 37° W 05:16:44 10° NNW
Cosmos 2061 Rocket 4.0 05:07:57 10° N 05:14:20 77° W 05:20:41 10° S
Centaur D-1AR AC-48 3.6 05:11:40 17° WNW 05:15:01 40° N 05:29:23 10° ENE
Cosmos 2333 Rocket 3.8 05:17:37 15° WNW 05:17:37 15° WNW 05:20:33 10° NW
ADEOS 4.4 05:13:06 10° NNW 05:17:25 27° WNW 05:21:44 10° SW
X-37B 3.6 05:17:36 10° NNE 05:18:56 12° NE 05:20:15 10° ENE
Meteor PRIRODA 3.5 05:16:17 10° N 05:19:54 87° W 05:23:31 10° SSW
CZ-4B R/B 2.5 05:17:11 10° N 05:20:43 64° WNW 05:24:22 10° SSW
Cosmos 1743 2.8 05:17:27 10° NNW 05:21:07 48° W 05:24:50 10° SSW
Delta 198 4.4 05:18:04 11° SW 05:21:21 35° SSE 05:25:01 10° E
METEOR-M 4.4 05:16:56 10° N 05:21:58 43° WNW 05:26:59 10° SSW
GPS 2-14 Rocket1 2.7 05:19:30 18° WSW 05:22:30 83° SSE 05:26:40 10° ENE
ARIANE 5 DEB (SYLDA) 3.7 05:21:03 16° WSW 05:23:52 60° S 05:30:09 10° E
Cosmos 1864 Rocket 4.4 05:18:10 10° N 05:24:17 74° W 05:30:22 10° S
Cosmos 1725 Rocket 3.9 05:20:00 10° N 05:26:08 73° W 05:32:18 10° S
Meteor 1-13 Rocket 4.5 05:20:48 10° S 05:26:16 72° E 05:31:46 10° N
SL-08 R/B 4.5 05:21:03 10° N 05:27:19 69° W 05:33:30 10° S
ARIANE 5 R/B 4.3 05:22:23 10° SW 05:28:42 51° SSE 06:43:36 10° E
Cosmos 1908 Rocket 3.5 05:25:10 10° N 05:29:36 74° W 05:34:03 10° S
NOSS 0 Rocket 4.4 05:24:47 10° SW 05:30:25 37° WNW 05:36:05 10° N
SAR-Lupe-1 4.0 05:30:15 10° S 05:33:47 85° WSW 05:37:21 10° NNW
Ariane 42L Rocket 4.5 05:28:33 10° WSW 05:36:30 26° SSW 05:39:36 10° SE
Cosmos 372 Rocket 4.0 05:31:49 10° NNW 05:36:47 55° WSW 05:41:44 10° S
GPS 2-18 Rocket1 3.2 05:34:02 11° WNW 05:37:36 66° SSW 05:41:30 10° ESE
SWIFT 2.9 05:35:28 11° W 05:39:22 46° NNW 05:43:28 10° ENE
Gbstr 26 Del rocket 4.0 05:32:18 10° NW 05:39:37 79° SW 05:45:35 10° SSE
Aurora 2 Rocket 3.3 05:36:45 11° W 05:39:57 34° NNW 05:44:14 10° NE
Cosmos 773 Rocket 4.0 05:39:09 10° SSW 05:44:11 57° WNW 05:49:13 10° N
SKYMED 2 4.4 05:40:32 10° SSE 05:44:47 57° ENE 05:49:01 10° N
PSLV R/B 4.4 05:45:30 10° SSE 05:49:30 67° ENE 05:53:30 10° N
ARIANE 5 R/B 4.4 05:21:19 13° W 06:12:53 74° S 06:19:27 10° ESE
